Tracking 33165 objects as of 7-Feb-2026
HD Live streaming from Space Station
objects crossing your sky now

NOAA 16 DEB

Track NOAA 16 DEB now!
10-day predictions


NORAD ID: 41511
Int'l Code: 2000-055MK
Perigee: 806.1 km
Apogee: 843.9 km
Inclination: 98.7 °
Period: 101.2 minutes
Semi major axis: 7195 km
RCS: Unknown
Launch date: September 21, 2000
Source: United States (US)
Launch site: AIR FORCE WESTERN TEST RANGE (AFWTR)

Note: This is SATELLITE DEBRIS
Your satellite tracking list
Your tracking list is empty




NASA's NSSDC Master Catalog

Two Line Element Set (TLE):
1 41511U 00055MK  26038.39854429  .00003892  00000-0  17667-2 0  9996
2 41511  98.6941  96.5431 0026269 131.0029 229.3427 14.22227519509479
Source of the keplerian elements: AFSPC